User: anonymous   Login
Location: NJAA Observatory
(40.6819°N, 74.8979°W)
Time: 23:45:45
(UTC-04:00)
Language:

Cosmos 2263 Rocket - Orbit

View from above orbital plane
View from above orbital plane
View from above satellite
View from above satellite

Ground track
Ground track

The orbit data is extracted from the following two-line orbital elements,

1 22803U 93059B   17290.44082507 -.00000014 +00000-0 +16909-4 0  9995
2 22803 070.9918 351.8217 0018201 206.4927 153.5268 14.16779826245349
Epoch (UTC): 17 October 2017 10:34:47
Eccentricity: 0.0018201
inclination: 70.9918°
perigee height: 823 km
apogee height: 849 km
right ascension of ascending node: 351.8217°
argument of perigee: 206.4927°
revolutions per day: 14.16779826
mean anomaly at epoch: 153.5268°
orbit number at epoch: 24534

The dashed part of the orbit path shows where the satellite is in the earth's shadow,  

DLR